FENGYUN 1C DEB, 33687

Orbit data source: Space-Track

FENGYUN 1C DEB, 33687 is space debris in SSO originally from a launch on Mon, 10 May 1999 UTC launched from the Taiyaun Space Center, China (TSC). Fengyun 1C debris stems from the Chinese weather satellite Fengyun-1C, which was intentionally destroyed by a Chinese anti-satellite missile in 2007. This event dramatically increased the amount of space debris, with thousands of trackable fragments posing hazards to satellites and human spaceflight. The Fengyun 1C debris cloud has become a focal point in discussions about space sustainability and the need for international regulations to prevent the creation of new debris.

Loading next visibility...
Identifier
33687, 1999-025DFY
Orbit
SSO
Country
Flag of CNCN / PRC
Related business
Manufacturer
Unknown
Mission
Spacecraft
Bus & Motor
Unknown
Mass
Unknown
Launch date (UTC)
1999-05-10 (27 years ago)
Launch vehicle
Unknown
Launch site
Taiyaun Space Center, China (TSC)
Object type
Payload
Rocket body
Debris
Shape & HBR
Unknown shape, 0.1 m
Radar Cross Section
Small (<0.1 m²)

Expand to show TLE details & history
Last TLE update: 1 week ago

TLE from 1 week ago
0 FENGYUN 1C DEB
1 33687U 99025DFY 26143.38877196  .00035805  00000-0  10849-2 0  9992
2 33687  98.9767 186.2568 0094667 149.7800 210.8944 15.29682045739719
Epoch: 2026-05-23T09:19Z
TLE epoch observation values (Epoch: 2026-05-23T09:19:49.897Z)
Latitude
0.00003°
Longitude
165.29291°
Altitude
535.675 km
Speed
7.564 km/s
True Right ascension
12h 25m 01s
True Declination
0° 00' 00"
Sunlit
Object was in full shadow at epoch
Visualization orbit readout
Latitude
Unknown
Longitude
Unknown
Altitude
Unknown
Speed
Unknown
Apparent Right ascension
Unknown
Apparent Declination
Unknown
Sunlit
N/A
Visualization observer readout
Local Sidereal Time
22:27:03
Azimuth
Unknown
Elevation
Unknown
Doppler factor
Unknown
Orbital elements
Apogee altitude
538.654 km
Perigee altitude
408.924 km
Semi-major axis
6,851.926 km
Eccentricity
0.00947
Inclination
98.9767°
RAAN
186.2568°
Arg. of periapsis
149.78°
True anomaly
210.34301°
Mean anomaly
210.8944°
Eccentric anomaly
210.61815°
Mean motion
3.8267 °/min
Orbital period
94.08 mins
BSTAR
0.0010849
Loading maneuver chart data...
Computing Atmospheric mass density...

Documentation

Showing up to 5 results
|